Home > Weather > Swindon > Past weeks

Flag for United Kingdom Past Weather in Swindon, England, United Kingdom — Yesterday and Last 2 Weeks

Now
61 °F

Low clouds.


Feels Like: 61 °F
Forecast: 54 / 70 °F
Wind: 6 mph from Southwest

Location: Brize Norton

Current Time: Jul 29, 2016 at 6:55:41 AM

Latest Report: Jul 29, 2016 at 5:50 AM


Visibility: 5 mi

Pressure: 29.83 "Hg

Humidity: 94%

Dew Point: 59 °F

Location of SwindonLocation

Past Weather in Swindon — Graph

°F

Swindon Temperature Yesterday

Maximum temperature yesterday: 70 °F (at 4:50 PM)
Minimum temperature yesterday: 55 °F (at 3:50 AM)
Average temperature yesterday: 63 °F

High & Low Weather Summary for the Past Weeks

 TemperatureHumidityPressure
High93 °F (Jul 19, 4:50 PM)100% (Jul 18, 2:50 AM)30.33 "Hg (Jul 18, 2:50 AM)
Low48 °F (Jul 14, 5:50 AM)32% (Jul 19, 4:50 PM)29.71 "Hg (Jul 20, 4:50 AM)
Average66 °F74%30.08 "Hg
* Reported Jul 14 5:50 AM — Jul 29 4:50 AM, Swindon, Weather by CustomWeather, © 2016

Note: Actual official high and low records may vary slightly from our data, if they occured in-between our weather recording intervals... More about our weather records

Advertising

Swindon Weather History for the Previous 24 Hours

Scroll right to see more
 ConditionsComfort  
Time TempWeatherWind HumidityBarometerVisibility
4:50 AM
Fri, Jul 29
59 °FOvercast.6 mph94%29.83 "HgN/A
3:50 AM59 °FPassing clouds.6 mph94%29.83 "HgN/A
2:50 AM59 °FPassing clouds.5 mph94%29.83 "Hg5 mi
1:50 AM59 °FPassing clouds.2 mph94%29.86 "HgN/A
12:50 AM59 °FPassing clouds.No wind94%29.86 "HgN/A
11:50 PM
Thu, Jul 28
61 °FPassing clouds.3 mph88%29.86 "HgN/A
10:50 PM63 °FPassing clouds.5 mph83%29.86 "HgN/A
9:50 PM64 °FPartly sunny.5 mph83%29.86 "HgN/A
8:50 PM66 °FPartly sunny.7 mph73%29.86 "HgN/A
7:50 PM68 °FPartly sunny.10 mph69%29.86 "HgN/A
6:50 PM70 °FPassing clouds.8 mph69%29.86 "HgN/A
5:50 PM70 °FPassing clouds.12 mph69%29.86 "HgN/A
4:50 PM70 °FPartly sunny.9 mph69%29.86 "HgN/A
3:50 PM66 °FBroken clouds.9 mph78%29.89 "HgN/A
2:50 PM64 °FPartly sunny.8 mph83%29.89 "HgN/A
1:50 PM63 °FLight rain. Overcast.9 mph83%29.92 "HgN/A
12:50 PM64 °FLight rain. Overcast.10 mph64%29.95 "HgN/A
11:50 AM64 °FLight rain. Overcast.7 mph60%29.95 "HgN/A
10:50 AM63 °FOvercast.6 mph59%29.98 "HgN/A
9:50 AM63 °FPartly sunny.7 mph59%29.98 "HgN/A
8:50 AM63 °FSunny.3 mph59%29.98 "Hg10 mi
7:50 AM61 °FSunny.2 mph68%29.98 "Hg10 mi
6:50 AM55 °FScattered clouds.2 mph82%29.98 "HgN/A
Weather by CustomWeather, © 2016

See weather overviewHow to use our weather pages